N5TM-4 Weather Reports


time (UTC)temp
F
wind
direction
speed
knots
gust
knots
rain 1hr
in
rain 24hr
in
rain mn
in
humidity
%
barometer
mb
20260506013557 78 169 3.5 9.6 0.00 0.00 0.00 80 1007.7
20260506013057 78 166 3.5 9.6 0.00 0.00 0.00 80 1007.6
20260506012559 78 155 3.5 8.7 0.00 0.00 0.00 79 1007.5
20260506012057 79 146 3.5 9.6 0.00 0.00 0.00 79 1007.3
20260506011607 79 171 3.5 13.0 0.00 0.00 0.00 79 1007.2
20260506011057 79 165 4.3 13.0 0.00 0.00 0.00 78 1007.2
20260506010601 79 114 4.3 10.4 0.00 0.00 0.00 78 1007.2
20260506010059 79 163 3.5 8.7 0.00 0.00 0.00 78 1007.1
20260506005556 79 180 1.7 9.6 0.00 0.00 0.00 77 1007.1
20260506005056 79 194 4.3 10.4 0.00 0.00 0.00 77 1007.0
20260506004559 79 170 6.1 10.4 0.00 0.00 0.00 77 1007.1
20260506004056 79 152 2.6 7.8 0.00 0.00 0.00 77 1007.1
20260506003556 79 118 3.5 13.0 0.00 0.00 0.00 77 1006.9
20260506003056 80 178 5.2 13.0 0.00 0.00 0.00 76 1006.8
20260506002558 80 183 3.5 8.7 0.00 0.00 0.00 76 1006.8
20260506002055 80 171 5.2 9.6 0.00 0.00 0.00 75 1006.8
20260506001555 80 170 3.5 8.7 0.00 0.00 0.00 75 1006.9
20260506001056 80 155 4.3 8.7 0.00 0.00 0.00 75 1006.8
20260506000556 80 207 3.5 9.6 0.00 0.00 0.00 75 1006.9
20260506000100 80 145 3.5 13.0 0.00 0.00 0.00 74 1006.9
20260505235555 80 162 5.2 13.0 0.00 0.00 0.00 74 1006.9
20260505235055 80 165 4.3 11.3 0.00 0.00 0.00 75 1006.9
20260505234603 81 189 5.2 11.3 0.00 0.00 0.00 74 1006.8
20260505234054 81 136 4.3 8.7 0.00 0.00 0.00 74 1006.7
20260505233554 81 250 4.3 8.7 0.00 0.00 0.00 75 1006.7
20260505233108 81 163 5.2 9.6 0.00 0.00 0.00 74 1006.7
20260505232554 81 167 4.3 9.6 0.00 0.00 0.00 74 1006.8
20260505232055 81 178 5.2 10.4 0.00 0.00 0.00 74 1006.9
20260505231556 81 190 6.1 9.6 0.00 0.00 0.00 73 1006.8
20260505231054 81 169 3.5 12.2 0.00 0.00 0.00 74 1006.8
20260505230552 81 140 4.3 12.2 0.00 0.00 0.00 73 1006.9
20260505230053 81 179 4.3 11.3 0.00 0.00 0.00 74 1006.8
20260505225552 81 216 6.1 11.3 0.00 0.00 0.00 74 1006.8
20260505225052 81 182 4.3 13.9 0.00 0.00 0.00 74 1006.9
20260505224553 82 155 5.2 13.0 0.00 0.00 0.00 74 1006.8
20260505224051 82 167 5.2 13.0 0.00 0.00 0.00 74 1006.8
20260505223550 82 168 4.3 9.6 0.00 0.00 0.00 74 1006.9
20260505223053 82 178 2.6 9.6 0.00 0.00 0.00 73 1006.9
20260505222550 82 180 4.3 13.0 0.00 0.00 0.00 73 1006.9
20260505222050 82 168 7.0 13.0 0.00 0.00 0.00 73 1006.9
20260505221550 82 155 7.0 12.2 0.00 0.00 0.00 73 1007.0
20260505221049 82 184 6.1 12.2 0.00 0.00 0.00 73 1006.9
20260505220548 83 178 3.5 8.7 0.00 0.00 0.00 72 1007.0
20260505220048 83 163 4.3 8.7 0.00 0.00 0.00 71 1007.1
20260505215549 84 192 1.7 7.8 0.00 0.00 0.00 71 1007.1
20260505215047 83 182 0.9 11.3 0.00 0.00 0.00 72 1007.1
20260505214551 83 157 4.3 11.3 0.00 0.00 0.00 71 1007.2
20260505214046 84 161 3.5 11.3 0.00 0.00 0.00 71 1007.2
20260505213545 84 188 2.6 11.3 0.00 0.00 0.00 71 1007.3
20260505213045 84 164 2.6 12.2 0.00 0.00 0.00 71 1007.4
20260505212544 83 153 3.5 14.8 0.00 0.00 0.00 72 1007.3
20260505212044 83 157 3.5 13.9 0.00 0.00 0.00 72 1007.4
20260505211543 83 162 4.3 9.6 0.00 0.00 0.00 72 1007.5
20260505211045 83 105 1.7 8.7 0.00 0.00 0.00 73 1007.6
20260505210642 83 165 2.6 8.7 0.00 0.00 0.00 73 1007.6
20260505210043 83 180 3.5 8.7 0.00 0.00 0.00 72 1007.7
20260505205541 83 169 2.6 10.4 0.00 0.00 0.00 72 1007.8
20260505205041 83 205 4.3 10.4 0.00 0.00 0.00 71 1007.9
20260505204542 84 250 3.5 10.4 0.00 0.00 0.00 70 1008.0
20260505204038 84 192 3.5 12.2 0.00 0.00 0.00 70 1008.1
20260505203543 84 211 2.6 8.7 0.00 0.00 0.00 70 1008.1
20260505203037 84 150 3.5 7.8 0.00 0.00 0.00 70 1008.1
20260505202539 84 219 2.6 7.0 0.00 0.00 0.00 71 1008.3
20260505202040 84 178 3.5 13.0 0.00 0.00 0.00 71 1008.3
20260505201536 84 200 2.6 13.0 0.00 0.00 0.00 70 1008.4
20260505201035 85 146 3.5 9.6 0.00 0.00 0.00 69 1008.4
20260505200535 85 161 2.6 10.4 0.00 0.00 0.00 68 1008.6
20260505200042 85 212 1.7 10.4 0.00 0.00 0.00 69 1008.5
20260505195535 85 200 2.6 8.7 0.00 0.00 0.00 70 1008.5
20260505195033 85 207 1.7 7.0 0.00 0.00 0.00 70 1008.6
20260505194532 84 202 1.7 9.6 0.00 0.00 0.00 71 1008.7
20260505194031 84 157 1.7 9.6 0.00 0.00 0.00 70 1008.7
20260505193530 84 188 2.6 7.0 0.00 0.00 0.00 71 1008.8
20260505193030 84 166 1.7 9.6 0.00 0.00 0.00 70 1008.8
20260505192533 84 196 2.6 12.2 0.00 0.00 0.00 70 1008.8
20260505192029 84 275 3.5 12.2 0.00 0.00 0.00 70 1008.8
20260505191529 84 205 1.7 8.7 0.00 0.00 0.00 70 1008.9
20260505191028 84 183 2.6 8.7 0.00 0.00 0.00 70 1008.9
20260505190527 83 190 0.9 11.3 0.00 0.00 0.00 72 1008.9
20260505190035 83 206 3.5 11.3 0.00 0.00 0.00 72 1008.9
20260505185527 82 227 3.5 12.2 0.00 0.00 0.00 73 1008.9
20260505185028 82 178 2.6 8.7 0.00 0.00 0.00 73 1009.1
20260505184527 82 140 0.9 8.7 0.00 0.00 0.00 72 1009.1
20260505184028 82 164 1.7 8.7 0.00 0.00 0.00 72 1009.1
20260505183526 83 157 2.6 8.7 0.00 0.00 0.00 72 1009.1
20260505183029 83 209 4.3 8.7 0.00 0.00 0.00 71 1009.1
20260505182526 83 153 1.7 11.3 0.00 0.00 0.00 71 1009.1
20260505182024 83 159 0.9 11.3 0.00 0.00 0.00 72 1009.2
20260505181523 82 246 1.7 7.8 0.00 0.00 0.00 73 1009.2
20260505181021 82 221 2.6 7.8 0.00 0.00 0.00 74 1009.3
20260505180521 81 160 0.9 9.6 0.00 0.00 0.00 75 1009.4
20260505180020 81 141 1.7 8.7 0.00 0.00 0.00 75 1009.4
20260505175519 81 180 3.5 7.8 0.00 0.00 0.00 75 1009.4
20260505175020 80 249 2.6 6.1 0.00 0.00 0.00 76 1009.5
20260505174519 80 257 0.9 6.1 0.00 0.00 0.00 78 1009.6
20260505174021 80 136 2.6 7.8 0.00 0.00 0.00 78 1009.7
20260505173517 80 179 2.6 7.8 0.00 0.00 0.00 77 1009.7
20260505173017 80 169 3.5 9.6 0.00 0.00 0.00 77 1009.8
20260505172519 80 158 3.5 9.6 0.00 0.00 0.00 77 1009.7
20260505172019 80 162 4.3 8.7 0.00 0.00 0.00 76 1009.7
20260505171522 80 164 2.6 11.3 0.00 0.00 0.00 76 1009.7
20260505171017 80 180 2.6 11.3 0.00 0.00 0.00 76 1009.7
20260505170516 80 167 3.5 8.7 0.00 0.00 0.00 76 1009.7
20260505170019 81 194 2.6 9.6 0.00 0.00 0.00 75 1009.8
20260505165516 81 147 0.9 9.6 0.00 0.00 0.00 76 1009.8
20260505165016 81 207 1.7 7.8 0.00 0.00 0.00 75 1009.8
20260505164515 80 200 2.6 7.8 0.00 0.00 0.00 76 1009.8
20260505164013 80 187 1.7 8.7 0.00 0.00 0.00 78 1009.8
20260505163512 79 167 3.5 8.7 0.00 0.00 0.00 79 1009.7
20260505163011 79 200 3.5 9.6 0.00 0.00 0.00 79 1009.7
20260505162509 78 173 1.7 9.6 0.00 0.00 0.00 80 1009.7
20260505162010 78 119 2.6 9.6 0.00 0.00 0.00 81 1009.8
20260505161509 78 203 3.5 12.2 0.00 0.00 0.00 81 1009.7
20260505161009 77 138 2.6 12.2 0.00 0.00 0.00 81 1009.7
20260505160509 78 163 3.5 9.6 0.00 0.00 0.00 81 1009.7
20260505153004 77 163 3.5 8.7 0.00 0.00 0.00 82 1009.4
20260505152503 77 169 4.3 10.4 0.00 0.00 0.00 82 1009.5
20260505152002 77 165 3.5 10.4 0.00 0.00 0.00 83 1009.5
20260505151503 77 194 1.7 7.8 0.00 0.00 0.00 83 1009.5
20260505151001 76 165 3.5 9.6 0.00 0.00 0.00 84 1009.6
20260505150600 76 173 1.7 9.6 0.00 0.00 0.00 84 1009.5
20260505140556 75 159 3.5 9.6 0.00 0.00 0.00 86 1009.2
20260505130105 73 142 2.6 7.0 0.00 0.00 0.00 89 1008.9
20260505124546 72 172 1.7 6.1 0.00 0.00 0.00 91 1009.1
20260505124039 71 173 2.6 6.1 0.00 0.00 0.00 91 1009.2
20260505123538 71 187 1.7 3.5 0.00 0.00 0.00 91 1009.1
20260505123043 71 178 0.9 4.3 0.00 0.00 0.00 91 1009.0
20260505122539 71 182 1.7 4.3 0.00 0.00 0.00 91 1009.0
20260505122036 70 180 0.9 5.2 0.00 0.00 0.00 91 1008.9
20260505121536 70 192 0.9 5.2 0.00 0.00 0.00 91 1008.9
20260505121036 70 198 1.7 4.3 0.00 0.00 0.00 91 1008.7
20260505120535 70 180 1.7 4.3 0.00 0.00 0.00 91 1008.7
20260505120035 70 171 1.7 5.2 0.00 0.00 0.00 91 1008.6
20260505115535 70 155 1.7 5.2 0.00 0.00 0.00 91 1008.6
20260505115039 70 174 1.7 6.1 0.00 0.00 0.00 91 1008.4
20260505114535 70 181 1.7 6.1 0.00 0.00 0.00 91 1008.6
20260505114035 70 207 2.6 6.1 0.00 0.00 0.00 91 1008.8
20260505113535 70 179 0.9 4.3 0.00 0.00 0.00 91 1008.9
20260505113033 70 166 1.7 5.2 0.00 0.00 0.00 91 1008.8
20260505112535 70 178 0.9 4.3 0.00 0.00 0.00 91 1008.9
20260505112033 70 178 0.0 4.3 0.00 0.00 0.00 91 1008.7
20260505111538 70 179 1.7 4.3 0.00 0.00 0.00 91 1008.5
20260505111033 70 175 0.9 6.1 0.00 0.00 0.00 91 1008.5
20260505110533 70 186 1.7 6.1 0.00 0.00 0.00 91 1008.4
20260505102031 69 152 0.0 2.6 0.00 0.00 0.00 91 1008.8
20260505101531 69 152 0.9 4.3 0.00 0.00 0.00 91 1008.7
20260505101029 69 152 0.9 4.3 0.00 0.00 0.00 91 1008.7
20260505100529 69 152 0.9 4.3 0.00 0.00 0.00 91 1008.8
20260505100031 69 152 0.0 4.3 0.00 0.00 0.00 90 1008.9
20260505095529 69 152 0.9 4.3 0.00 0.00 0.00 90 1009.0
20260505095028 69 152 0.0 4.3 0.00 0.00 0.00 90 1009.0
20260505094528 69 152 0.9 5.2 0.00 0.00 0.00 90 1008.8
20260505094028 69 152 1.7 5.2 0.00 0.00 0.00 90 1008.6
20260505093526 69 158 1.7 4.3 0.00 0.00 0.00 89 1008.7
20260505093026 69 158 1.7 5.2 0.00 0.00 0.00 89 1008.9
20260505092529 69 157 1.7 5.2 0.00 0.00 0.00 89 1008.9
20260505092024 69 156 0.9 4.3 0.00 0.00 0.00 89 1008.9
20260505091524 69 156 1.7 4.3 0.00 0.00 0.00 89 1009.0
20260505091028 69 156 1.7 4.3 0.00 0.00 0.00 89 1009.1
20260505090524 69 156 0.9 5.2 0.00 0.00 0.00 89 1009.2
20260505090024 69 156 1.7 5.2 0.00 0.00 0.00 89 1009.1
20260505085523 69 169 0.9 4.3 0.00 0.00 0.00 89 1009.0
20260505085023 69 169 0.9 4.3 0.00 0.00 0.00 88 1009.1
20260505084526 69 164 0.9 4.3 0.00 0.00 0.00 89 1009.1
20260505084023 69 177 1.7 4.3 0.00 0.00 0.00 89 1009.1
20260505083520 69 184 0.9 2.6 0.00 0.00 0.00 89 1009.2
20260505083020 69 184 0.9 2.6 0.00 0.00 0.00 89 1009.3
20260505082519 69 184 0.0 2.6 0.00 0.00 0.00 88 1009.4
20260505082019 69 184 0.9 2.6 0.00 0.00 0.00 88 1009.3
20260505081529 69 184 0.0 4.3 0.00 0.00 0.00 88 1009.4
20260505081019 69 184 1.7 4.3 0.00 0.00 0.00 88 1009.4
20260505080521 69 163 0.9 4.3 0.00 0.00 0.00 88 1009.4
20260505080021 69 163 1.7 4.3 0.00 0.00 0.00 88 1009.4
20260505075517 69 163 0.9 4.3 0.00 0.00 0.00 87 1009.6
20260505075019 69 163 0.9 4.3 0.00 0.00 0.00 87 1009.6
20260505074516 69 163 1.7 5.2 0.00 0.00 0.00 87 1009.6
20260505074016 69 163 1.7 6.1 0.00 0.00 0.00 87 1009.6
20260505073515 69 148 0.9 6.1 0.00 0.00 0.00 87 1009.6
20260505073014 69 159 1.7 5.2 0.00 0.00 0.00 87 1009.6
20260505072515 69 198 1.7 6.1 0.00 0.00 0.00 87 1009.7
20260505072014 69 188 0.9 6.1 0.00 0.00 0.00 86 1009.6
20260505071526 69 181 2.6 7.0 0.00 0.00 0.00 86 1009.6
20260505071013 69 155 2.6 7.0 0.00 0.00 0.00 86 1009.7
20260505070512 69 148 1.7 5.2 0.00 0.00 0.00 86 1009.8
20260505070012 69 184 1.7 7.0 0.00 0.00 0.00 86 1009.9
20260505065510 69 161 2.6 7.8 0.00 0.00 0.00 86 1010.0
20260505065009 69 171 2.6 7.8 0.00 0.00 0.00 85 1010.1
20260505064519 69 167 1.7 7.0 0.00 0.00 0.00 85 1010.0
20260505064008 69 158 2.6 7.0 0.00 0.00 0.00 85 1010.1
20260505063507 69 184 2.6 7.0 0.00 0.00 0.00 85 1010.2
20260505063013 69 157 2.6 7.0 0.00 0.00 0.00 85 1010.4
20260505062506 70 192 1.7 6.1 0.00 0.00 0.00 84 1010.4
20260505062006 70 153 1.7 6.1 0.00 0.00 0.00 84 1010.4
20260505061509 70 175 3.5 7.8 0.00 0.00 0.00 84 1010.4
20260505061008 70 160 3.5 7.8 0.00 0.00 0.00 84 1010.7
20260505060508 70 176 2.6 7.0 0.00 0.00 0.00 84 1010.7
20260505060005 70 169 3.5 6.1 0.00 0.00 0.00 84 1010.6
20260505055504 70 175 2.6 6.1 0.00 0.00 0.00 84 1010.5
20260505055004 70 136 2.6 7.0 0.00 0.00 0.00 84 1010.5
20260505054504 70 168 2.6 7.0 0.00 0.00 0.00 83 1010.5
20260505054003 70 177 3.5 8.7 0.00 0.00 0.00 83 1010.4
20260505053501 70 151 3.5 7.8 0.00 0.00 0.00 83 1010.5
20260505053107 70 185 2.6 7.8 0.00 0.00 0.00 83 1010.8
20260505052559 70 171 2.6 7.0 0.00 0.00 0.00 83 1011.0
20260505052103 70 172 3.5 7.0 0.00 0.00 0.00 83 1011.0
20260505051559 70 184 1.7 7.8 0.00 0.00 0.00 83 1011.0
20260505051059 70 165 0.9 5.2 0.00 0.00 0.00 82 1011.0
20260505050557 70 150 0.9 5.2 0.00 0.00 0.00 82 1011.0
20260505041556 71 163 2.6 5.2 0.00 0.00 0.00 80 1011.0
20260505041055 71 161 1.7 5.2 0.00 0.00 0.00 80 1011.0
20260505040557 71 154 2.6 8.7 0.00 0.00 0.00 80 1011.1
20260505040055 71 183 0.9 8.7 0.00 0.00 0.00 80 1011.2
20260505035554 71 176 3.5 8.7 0.00 0.00 0.00 79 1011.2
20260505035054 71 174 2.6 7.8 0.00 0.00 0.00 79 1011.1
20260505034555 71 155 3.5 7.8 0.00 0.00 0.00 79 1011.2
20260505034054 71 150 1.7 7.8 0.00 0.00 0.00 79 1011.4
20260505033554 71 133 1.7 7.0 0.00 0.00 0.00 78 1011.3
20260505033054 71 187 2.6 7.8 0.00 0.00 0.00 78 1011.3
20260505032554 71 161 4.3 7.0 0.00 0.00 0.00 78 1011.4
20260505032053 71 138 2.6 7.8 0.00 0.00 0.00 78 1011.5
20260505031555 72 163 1.7 7.8 0.00 0.00 0.00 78 1011.4
20260505031053 72 163 5.2 7.8 0.00 0.00 0.00 78 1011.2
20260505030553 72 186 3.5 8.7 0.00 0.00 0.00 77 1011.2
20260505030053 72 162 4.3 8.7 0.00 0.00 0.00 77 1011.3
20260505025553 72 205 4.3 7.0 0.00 0.00 0.00 77 1011.3
20260505025054 72 171 2.6 7.8 0.00 0.00 0.00 76 1011.3
20260505024553 72 157 4.3 9.6 0.00 0.00 0.00 76 1011.3
20260505024052 73 142 5.2 9.6 0.00 0.00 0.00 76 1011.4
20260505023551 73 141 4.3 9.6 0.00 0.00 0.00 76 1011.3
20260505023057 73 162 5.2 9.6 0.00 0.00 0.00 76 1011.3
20260505022553 73 177 2.6 8.7 0.00 0.00 0.00 75 1011.2
20260505022050 73 150 3.5 12.2 0.00 0.00 0.00 75 1011.1
20260505021552 73 147 6.1 12.2 0.00 0.00 0.00 74 1010.9
20260505021050 73 155 2.6 9.6 0.00 0.00 0.00 74 1011.1
20260505020550 73 142 3.5 9.6 0.00 0.00 0.00 74 1011.0
20260505020055 73 142 4.3 9.6 0.00 0.00 0.00 74 1010.9
20260505015550 73 181 5.2 10.4 0.00 0.00 0.00 73 1010.9
20260505015052 74 163 5.2 10.4 0.00 0.00 0.00 73 1011.0
20260505014550 74 156 5.2 10.4 0.00 0.00 0.00 73 1010.9
20260505014049 74 190 4.3 14.8 0.00 0.00 0.00 73 1010.9